Location: Klein M�hlingen
(51.9472°N, 11.7453°E)
Time: 05:22:53
(UTC+00:00)

Cosmos 1461 - Pass Details

Date: 09 April 2020
Orbit: 507 x 660 km, 65.0° (Epoch: 02 June)

Event Time Altitude Azimuth Distance (km) Brightness Sun altitude
Rises 18:55:41 0° 315° (NW) 2,879 8.1 -8.7°
Reaches altitude 10° 18:57:58 10° 309° (NW) 1,994 7.2 -9.1°
Maximum altitude 19:02:19 48° 236° (SW) 841 4.0 -9.7°
Drops below altitude 10° 19:06:47 10° 163° (SSE) 2,050 5.3 -10.3°
Enters shadow 19:07:46 - 160° (SSE) 2,427 5.7 -10.4°
